"Pseudo-MPEC" for A11eZyR

Created 2024 Dec 7 17:31:03 UT using Find_Orb

Click here for an explanation of pseudo-MPECs

 
 Astrometry: 
     A11eZyR* C2024 12 01)7#NTEZ6@?td9:e/4%(7fFd`KlqBjLVtcZHqY\b!\nAstrometryM22
     A11eZyR  C2024 12 01P]#dc,!),?C11:-Vfredacted;**Rclick,Ueh=?hereiS^7*u:nM22
     A11eZyR  C2024 12 018JB`ieKU3eFQo*]!:Hi1h2eIo!==:rg621U^@5qfor+6Tt_U4axFM22
     A11eZyR  C2024 12 01Od1/gZ1^w%V?;i*J'$`x/vcp9r_J+*4p9explanationU*J9[)JTM22

Station data:
(M22) ATLAS South Africa, Sutherland  (S32.380156 E20.810590)  South Africa.
   Observers L. Denneau, R. Siverd, J. Tonry, H. Weiland. Measurers L.
   Denneau, N. Erasmus, A. Fitzsimmons, A. Lawrence, J. Robinson, R. Siverd,
   J. Tonry, H. Weiland. 0.5-m reflector + CCD.

Orbital elements:  A11eZyR
   Perigee 2024 Nov 30.66673 +/- 0.0269 TT = 16:00:05 (JD 2460645.16673)
Epoch 2024 Dec  1.0 TT = JDT 2460645.5                           AutoNEOCP
M 126.67429692 +/- 7                (J2000 equator)
n 380.09595773 +/- 17.6             Peri.  180.51605 +/- 1.8
a 40738.7787 +/- 1257               Node   129.68369 +/- 0.50
e   0.7411349 +/- 0.0152            Incl.    7.27742 +/- 0.23
P1363.840m/0.947d          H 28.68  G  0.15   U 14.7
q 10545.8452 +/- 933    Q 70931.7121 +/- 1617
From 4 observations 2024 Dec. 1 (47.1 min); mean residual 0".02
Residuals in arcseconds: 
241201 M22  .00   .02+    241201 M22  .00   .03+    
241201 M22  .00   .05-    241201 M22  .00   .00     

Ephemerides (geocentric):
Date (UTC) HH   RA             Dec           delta  r     elong  mag " sig PA
---- --------  ------------   ------------  ------ ------ -----  --- --------
2024 12 07 18  08 36 17.484   -00 00 30.90   70869 .98535 122.4 14.1 187'  82
2024 12 07 19  08 50 11.638   +00 26 28.31   70844 .98533 119.5 14.2 185'  82
2024 12 07 20  09 04 15.566   +00 53 40.47   70055 .98530 116.6 14.3 184'  82
2024 12 07 21  09 18 48.677   +01 21 35.96   68488 .98526 113.5 14.3 186'  82
2024 12 07 22  09 34 14.081   +01 50 49.56   66113 .98523 110.2 14.3 191'  82
2024 12 07 23  09 51 02.321   +02 22 04.66   62882 .98519 106.6 14.3 201'  82
2024 12 08 00  10 09 57.918   +02 56 19.79   58723 .98515 102.5 14.3 217'  82
2024 12 08 01  10 32 12.592   +03 34 59.66   53529 .98511  97.7 14.3 246'  82
2024 12 08 02  10 59 55.964   +04 20 14.69   47144 .98506  91.6 14.3 300'  82
2024 12 08 03  11 37 40.967   +05 15 31.24   39328 .98502  83.4 14.2 418'  83
2024 12 08 04  12 37 33.651   +06 24 59.80   29717 .98498  70.4 14.3 758'  85
2024 12 08 05  14 48 34.195   +07 22 13.72   17998 .98495  44.1 15??  43d  90
2024 12 08 06  22 25 09.883   -03 23 13.99   10983 .98502  80.6 11.6  58d  97
2024 12 08 07  03 36 53.871   -07 07 38.27   22104 .98514 143.8 11.0  18d  89
2024 12 08 08  05 12 19.324   -05 44 54.94   33142 .98521 151.4 11.6 598'  86
2024 12 08 09  06 02 25.857   -04 36 26.70   42108 .98525 148.8 12.2 431'  85
2024 12 08 10  06 36 02.188   -03 42 48.50   49415 .98528 144.8 12.7 349'  85
2024 12 08 11  07 01 34.645   -02 58 42.40   55381 .98529 141.0 13.0 301'  84
2024 12 08 12  07 22 31.696   -02 20 48.25   60216 .98529 137.4 13.3 271'  84
2024 12 08 13  07 40 38.143   -01 47 03.41   64056 .98529 134.2 13.5 250'  83
2024 12 08 14  07 56 54.405   -01 16 08.18   66995 .98528 131.1 13.7 235'  83
2024 12 08 15  08 11 59.299   -00 47 07.02   69096 .98527 128.2 13.9 225'  83
2024 12 08 16  08 26 20.331   -00 19 18.29   70401 .98525 125.3 14.0 217'  83
2024 12 08 17  08 40 19.038   +00 07 51.84   70934 .98522 122.5 14.1 213'  82
2024 12 08 18  08 54 14.190   +00 34 53.37   70704 .98520 119.6 14.2 212'  82
2024 12 08 19  09 08 24.126   +01 02 15.46   69709 .98517 116.6 14.2 213'  82
2024 12 08 20  09 23 08.978   +01 30 29.34   67928 .98513 113.5 14.3 217'  82
2024 12 08 21  09 38 53.412   +02 00 11.60   65329 .98510 110.2 14.3 226'  82
2024 12 08 22  09 56 10.916   +02 32 08.84   61858 .98506 106.5 14.3 242'  82
2024 12 08 23  10 15 51.594   +03 07 25.12   57433 .98502 102.2 14.3 268'  82
2024 12 09 00  10 39 18.508   +03 47 34.73   51938 .98497  97.1 14.2 315'  82
2024 12 09 01  11 09 07.291   +04 35 04.56   45197 .98493  90.6 14.2 403'  83
2024 12 09 02  11 51 03.135   +05 33 43.20   36941 .98488  81.4 14.2 609'  84
2024 12 09 03  13 01 48.288   +06 46 24.82   26774 .98484  66.2 14.3  22d  86
2024 12 09 04  16 01 03.415   +06 53 25.71   14720 .98483  33.5 16??  86d  93
2024 12 09 05  00 37 57.190   -06 26 06.40   13247 .98493 108.6 10.9  45d  94
2024 12 09 06  04 11 09.058   -06 45 53.98   25282 .98504 147.6 11.2  17d  88
2024 12 09 07  05 28 32.467   -05 24 15.35   35732 .98510 151.2 11.8 619'  86
2024 12 09 08  06 12 48.847   -04 20 10.48   44212 .98514 148.2 12.4 461'  85
2024 12 09 09  06 43 44.695   -03 29 24.10   51133 .98516 144.4 12.8 379'  84
2024 12 09 10  07 07 49.177   -02 47 08.02   56779 .98517 140.7 13.1 330'  84
2024 12 09 11  07 27 52.916   -02 10 26.53   61335 .98517 137.3 13.4 298'  84
2024 12 09 12  07 45 25.281   -01 37 30.63   64926 .98517 134.1 13.6 276'  83
2024 12 09 13  08 01 19.414   -01 07 08.23   67634 .98516 131.1 13.8 260'  83
2024 12 09 14  08 16 10.381   -00 38 28.15   69518 .98514 128.2 13.9 250'  83
2024 12 09 15  08 30 23.692   -00 10 51.23   70614 .98512 125.4 14.0 243'  82
2024 12 09 16  08 44 19.886   +00 16 15.06   70942 .98510 122.5 14.1 240'  82
2024 12 09 17  08 58 17.411   +00 43 20.25   70508 .98507 119.7 14.2 239'  82